Upstream stations:
Downstream station:
SHEF ID: FLRK1 COTTONWOOD R NR FLORENCE, KS
STATION TYPE:
Regulating: Stage = 21.00, Flow = 9471
PRECIP STAGE STAGE(2) RIV-FLOW BAT-LOAD
in ft ft cfs volt
Ccp-Rev Ccp-Rev Ccp-Rev Ccp-Rev Ccp-Rev
(US/Central)
09/15 00:00 0.00 3.04 2.90 50 12.95
09/15 01:00 0.28 3.03 2.90 47 12.95
09/15 02:00 0.01 3.06 2.91 54 12.89
09/15 03:00 0.00 3.06 2.91 54 12.89
09/15 04:00 0.00 3.06 2.91 54 12.89
09/15 05:00 0.00 3.06 2.91 54 12.83
09/15 06:00 0.01 3.06 2.91 54 12.83
09/15 07:00 0.00 3.07 2.91 57 12.77
09/15 08:00 0.00 3.07 2.91 57 12.77
09/15 09:00 0.00 3.07 2.91 57 12.89
09/15 10:00 0.00 3.07 2.91 57 13.36
09/15 11:00 0.00 3.08 2.91 59 13.48
09/15 12:00 0.00 3.09 2.91 62 13.53
09/15 13:00 0.00 3.09 2.91 62 13.94
09/15 14:00 0.00 3.11 2.91 67 13.71
09/15 15:00 0.00 3.13 2.90 72 13.83
09/15 16:00 0.00 3.14 2.91 75 13.48
09/15 17:00 0.00 3.15 2.91 77 13.53
09/15 18:00 0.00 3.15 2.91 77 13.48
09/15 19:00 0.00 3.15 2.91 77 13.53
09/15 20:00 0.00 3.16 2.90 80 13.12
09/15 21:00 0.00 3.15 2.90 96 13.07
09/15 22:00 0.00 3.15 2.90 96 13.00
09/15 23:00 0.00 3.14 2.90 94 13.00